Regional Weather Roundup
Issued by NWS

Home | Current Version | Previous Version | Graphics & Text | Print | Product List | Glossary On
Versions: 1 2 3 4 5 6 7 8 9 10 11 12 13 14 15 16 17 18 19 20 21 22 23 24 25 26 27 28 29 30 31 32 33 34 35 36 37 38 39 40 41 42 43 44 45 46 47 48 49 50
000
ASUS43 KLMK 280510
RWRKY
KENTUCKY REGIONAL WEATHER ROUNDUP
NATIONAL WEATHER SERVICE LOUISVILLE KY
100 AM EDT WED SEP 28 2016

NOTE "FAIR" INDICATES FEW OR NO CLOUDS BELOW 12,000 FEET
WITH NO SIGNIFICANT WEATHER AND/OR OBSTRUCTIONS TO VISIBILITY.

KYZ001>023-026-027-061>063-070>075-280600-
WESTERN AND SOUTH CENTRAL KENTUCKY

CITY           SKY/WX    TMP DP  RH WIND       PRES   REMARKS
PADUCAH        CLEAR     62  50  64 SW7       29.89F
HENDERSON      CLEAR     59  48  67 SW8       29.87F
OWENSBORO      NOT AVBL
HOPKINSVILLE   CLEAR     58  50  75 SW3       29.92F
BOWLING GREEN  CLEAR     60  48  64 CALM      29.93F
GLASGOW        CLEAR     51  51 100 CALM      29.94S
$$

KYZ024-025-028>034-038-045-046-053-280600-
NORTH CENTRAL KENTUCKY

CITY           SKY/WX    TMP DP  RH WIND       PRES   REMARKS
LOUISVILLE/SDF CLEAR     61  48  62 E6        29.89S
LOUISVILLE/LOU CLEAR     61  48  62 S5        29.90S
FORT KNOX      CLEAR     56  48  76 S3        29.89S
$$

KYZ035>037-039>044-047>052-055>060-089>105-280600-
NORTHEAST KENTUCKY

CITY           SKY/WX    TMP DP  RH WIND       PRES   REMARKS
LEXINGTON      CLEAR     57  44  62 S7        29.93S
COVINGTON      CLEAR     58  48  69 S8        29.88S
FRANKFORT      CLEAR     56  45  66 S5        29.90F
$$

KYZ054-064>069-076>088-106>120-280600-
SOUTHEAST KENTUCKY

CITY           SKY/WX    TMP DP  RH WIND       PRES   REMARKS
JACKSON        CLEAR     56  47  71 CALM      29.95S
LONDON         CLEAR     50  46  86 CALM      29.96S
SOMERSET       CLEAR     48  48 100 CALM      29.97S
MIDDLESBORO    CLEAR     49  48  97 CALM      29.98F
MONTICELLO     CLEAR     49  47  93 W7        29.98S
$$




USA.gov is the U.S. government's official web portal to all federal, state and local government web resources and services.